Powrót do katalogu

FENGYUN 1C DEB

AktywnySSO
NORAD 30634·DEBRIS·🇨🇳 China

Wystrzelony May 10, 1999 z Taiyuan Satellite Launch Center

Loading…

Następne Przeloty (najbliższe 24 godziny)

TLE

ŚwieżeSource: Space-Track

Epoka: Sep 14, 2026, 11:53 UTC

1 30634U 99025ANR 26257.49581074  .00002379  00000-0  12473-2 0  9991
2 30634  99.3099 255.0751 0119945  48.8072 101.3672 14.11603374995058

Śledź FENGYUN 1C DEB w czasie rzeczywistym z AllMySat

Download on the App Store